Regional Weather Roundup
Issued by NWS Newport/Morehead, NC

Current Version | Previous Version | Text Only | Print | Product List | Glossary On
Versions: 1 2 3 4 5 6 7 8 9 10 11 12 13 14 15 16 17 18 19 20 21 22 23 24 25 26 27 28 29 30 31 32 33 34 35 36 37 38 39 40 41 42 43 44 45 46 47 48 49 50
000 ASUS42 KMHX 171213 RWRMHX WEATHER ROUNDUP FOR EASTERN NORTH CAROLINA NATIONAL WEATHER SERVICE NEWPORT/MOREHEAD CITY NC 700 AM EST SAT FEB 17 2018 NOTE: "FAIR" INDICATES FEW OR NO CLOUDS BELOW 12,000 FEET WITH NO SIGNIFICANT WEATHER AND/OR OBSTRUCTIONS TO VISIBILITY NCZ015>017-031-032-045>047-102-103-171300- NORTH COAST CITY SKY/WX TMP DP RH WIND PRES REMARKS EDENTON CLOUDY 43 35 72 NE8 30.34R ELIZABETH CITY FAIR 41 37 86 N10 30.33R KITTY HAWK FAIR 43 38 83 N12G18 30.31R MANTEO CLOUDY 44 38 77 NE15G22 30.32R $$ NCZ045>047-081-094-103-104-171300- CENTRAL COAST CITY SKY/WX TMP DP RH WIND PRES REMARKS FRISCO CLOUDY 50 44 80 NE9G22 30.28R $$ NCZ095-097-098-100-101-171300- SOUTHERN COAST CITY SKY/WX TMP DP RH WIND PRES REMARKS BEAUFORT CLOUDY 49 40 71 NE10G23 30.27R CEDAR ISLAND NOT AVBL JACKSONVILLE CLOUDY 51 42 71 NE15 30.27R PINEY ISLAND NOT AVBL WILMINGTON CLOUDY 52 47 83 E12 30.25R $$ NCZ011>013-027>030-043-044-078>080-089-090>093-098-171300- COASTAL PLAIN CITY SKY/WX TMP DP RH WIND PRES REMARKS AHOSKIE CLOUDY 40 32 73 N8 30.35R CLINTON MOCLDY 51 45 79 NE5 30.28R ELIZABETHTOWN NOT AVBL GOLDSBORO CLOUDY 49 36 60 NE10 30.27R GREENVILLE CLOUDY 46 36 66 NE12G17 30.32R HAVELOCK CLOUDY 51 42 71 NE14 30.29R KENANSVILLE CLOUDY 50 43 76 E3 30.27R KINSTON CLOUDY 50 41 71 NE12 30.30R NEW BERN CLOUDY 47 40 76 NE13 30.30R RICHLANDS CLOUDY 50 39 66 NE10 30.28R ROCKY MOUNT CLOUDY 44 34 67 NE9 30.32R WASHINGTON CLOUDY 45 37 73 NE6 30.32R WHITEVILLE NOT AVBL $$ AMZ130-135-150-152-154-156-158-170-250-252-270-ANZ085-086-088-633-658-670-171300- MARINE OBSERVATIONS STATION/POSITION TIME TEMP WIND PRES WAVE SWELL AIR SEA DIR/SP/G HT/PER HT/PER (UTC) (F) (DEG/KT/KT) (MB) (FT/S) (FT/S) CHESAPEAKE LIGHT NOT AVBL 64 E VA BEACH 1150 47 50 40/ 17/ 21 1026.6 6/ 7 2/11 DUCK 1148 44 44 20/ 20/ 23 1026.3 2 E DUCK 1200 45 N/A 4/ 5 OREGON INLET 1136 45 55 10/ 10/ 14 1026.0 13E OREGON INLT 1148 46 N/A 6/ 6 3/10 HATTERAS CG 1148 50 59 40/ 14/ 20 1025.0 DIAMOND BUOY 1200 56 70 10/ 19/ 25 1024.4 CAPE LOOKOUT 1200 30/ 21/ 26 1025.2 BEAUFORT LAB 1148 49 55 40/ 11/ 17 1025.1 30 SE NEW RVR IN 1108 56 68 70/ 19/ 25 1023.4 30 SE NEW RVR IN 1200 68 N/A 7/ 6 2/11 27 SE WRIGHTSVLE 1108 57 65 70/ 23/ 31 1023.6 5 SE WRIGHTSVLE 1108 53 52 70/ 17/ 23 1022.9 225 S CAPE HAT 1150 72 72 260/ 10/ 12 1020.9 6/ 8 7/ 8 41 SE CHARLESTON 1200 66 69 50/ 17/ 21 1021.0 $$

USA.gov is the U.S. government's official web portal to all federal, state and local government web resources and services.